Location: Unspecified
(0.0000°N, 0.0000°E)
Time: 17:54:13
(UTC+00:00)

STARLINK 1045 - Pass Details

Date: 21 January 2020
Orbit: 549 x 551 km, 53.0° (Epoch: 23 January)

Event Time Altitude Azimuth Distance (km) Brightness Sun altitude
Rises 04:30:12 0° 193° (SSW) 2,725 7.3 -23.6°
Reaches altitude 10° 04:32:46 10° 179° (S) 1,828 6.5 -23.0°
Maximum altitude 04:36:09 24° 124° (SE) 1,163 6.0 -22.2°
Drops below altitude 10° 04:39:31 10° 70° (ENE) 1,817 6.9 -21.4°
Sets 04:42:03 0° 56° (NE) 2,706 7.6 -20.9°
